Temp_Advection
nan nan nan nan nan nan nan nan nan nan nan nan nan nan nan nan nan nan nan nan nan nan
nan 0 0 0 1 0 0 0 0 0 0 0 0 -0 -0 -0 0 0 0 0 0 nan
nan 0 0 1 0 0 0 0 0 0 0 0 0 0 -0 -0 0 0 0 0 0 nan
nan 1 0 0 0 0 0 0 0 0 0 0 -0 -0 0 0 0 0 -0 -1 0 nan
nan 0 -0 -0 0 0 1 0 0 0 0 0 0 0 0 0 0 -0 0 -0 -0 nan
nan 0 -0 0 0 0 0 0 0 1 0 0 0 0 0 0 0 0 0 -0 0 nan
nan -0 0 0 1 0 0 0 1 1 0 0 0 0 0 0 0 0 0 -0 -0 nan
nan 0 1 0 0 0 0 0 1 0 0 0 1 1 0 0 0 0 0 -0 -0 nan
nan 0 0 1 0 0 0 0 0 0 0 0 0 1 0 0 0 0 0 0 -0 nan
nan 1 0 0 0 0 0 0 0 0 0 0 0 0 1 0 0 0 0 0 0 nan
nan 0 0 0 0 0 0 0 0 0 0 1 1 0 0 0 0 0 0 0 0 nan
nan 0 0 0 -0 0 0 -0 -0 0 0 1 1 0 0 1 0 0 0 0 0 nan
nan -1 -0 0 0 0 -0 -0 -0 0 0 0 1 1 0 0 0 0 0 0 0 nan
nan nan nan nan nan nan nan nan nan nan nan nan nan nan nan nan nan nan nan nan nan nan
Wind_Speed
16 12 3 8 10 14 12 15 15 15 16 18 17 17 18 20 23 25 23 26 24 24
14 12 12 12 17 11 12 11 11 16 17 16 17 17 17 18 22 23 23 24 26 22
13 10 10 10 7 12 13 12 14 13 15 17 17 17 16 18 20 22 25 23 21 17
13 11 8 4 10 12 14 15 12 14 16 16 15 16 20 22 28 20 26 23 22 13
13 9 8 10 11 13 16 16 15 16 17 16 16 18 20 21 16 20 16 13 12 13
10 10 14 11 14 16 15 16 16 18 18 17 17 17 17 18 17 13 13 15 14 15
12 14 13 14 17 16 16 17 18 19 18 17 19 15 18 13 13 15 11 14 15 17
11 15 17 16 15 15 17 18 20 18 16 16 19 16 18 17 18 18 16 14 17 16
17 16 14 13 16 17 16 16 17 17 18 19 19 20 20 19 18 16 17 14 16 17
15 16 12 13 11 14 17 18 19 19 18 20 22 21 19 17 17 17 11 14 15 16
10 8 13 14 16 14 16 18 18 19 18 19 18 19 20 18 18 18 13 13 16 15
10 11 13 16 12 16 18 18 19 19 20 18 18 21 21 18 18 19 15 16 12 14
12 13 18 13 18 19 18 17 17 19 16 17 18 20 18 19 21 19 17 13 14 16
14 16 14 17 17 17 16 17 20 24 24 22 22 25 22 20 20 20 19 17 16 11
Wind_Direction
201 212 205 182 225 248 254 258 269 287 286 303 303 295 291 298 290 292 286 291 293 293
204 208 201 234 269 259 250 268 268 271 298 306 301 301 300 296 299 296 298 292 293 289
216 225 255 251 245 247 259 262 269 291 301 299 304 309 308 290 285 288 290 291 295 288
222 241 246 216 245 264 262 263 278 286 292 301 302 303 295 288 302 302 298 299 281 282
237 230 195 232 254 263 269 270 275 281 290 296 295 292 296 301 291 302 300 317 311 299
207 200 231 238 258 266 268 271 273 275 287 288 288 291 290 296 301 304 289 288 298 303
211 237 230 252 256 267 267 269 268 276 287 287 289 274 285 287 288 288 291 298 306 301
228 233 258 260 273 272 270 266 271 284 285 285 285 278 279 270 293 276 285 293 294 293
247 239 251 264 270 276 281 280 283 284 283 286 278 284 278 284 294 292 300 297 286 287
241 260 264 285 281 276 275 280 280 282 282 284 277 279 277 275 293 301 301 289 286 295
238 267 273 265 286 292 286 287 288 281 281 280 267 274 280 279 290 303 297 280 289 292
283 276 278 294 304 289 283 281 280 279 282 280 267 273 276 276 284 297 293 281 288 288
283 286 303 295 284 289 288 287 285 273 268 268 271 272 276 281 289 293 295 291 281 287
307 294 289 286 288 291 292 285 281 281 280 281 273 280 273 281 290 297 286 290 293 280
Height
1539 1541 1542 1543 1544 1543 1544 1543 1543 1542 1540 1538 1537 1535 1534 1532 1530 1528 1526 1524 1522 1520
1536 1537 1538 1539 1540 1541 1540 1540 1540 1538 1536 1534 1533 1531 1530 1528 1526 1524 1521 1520 1517 1515
1532 1533 1535 1535 1535 1538 1538 1536 1535 1534 1532 1531 1530 1528 1527 1524 1521 1519 1516 1514 1513 1512
1528 1528 1529 1530 1534 1535 1535 1532 1531 1530 1529 1528 1527 1525 1521 1518 1516 1514 1510 1507 1506 1505
1524 1524 1524 1527 1529 1529 1530 1529 1527 1526 1524 1523 1522 1519 1517 1513 1511 1510 1507 1506 1504 1503
1521 1523 1525 1523 1525 1525 1525 1524 1523 1521 1519 1518 1517 1514 1512 1510 1508 1506 1504 1503 1499 1498
1521 1523 1522 1520 1520 1521 1520 1519 1518 1516 1515 1514 1512 1510 1509 1508 1506 1504 1501 1500 1499 1496
1518 1517 1519 1517 1517 1517 1516 1514 1513 1512 1510 1509 1507 1504 1502 1502 1500 1500 1499 1496 1495 1493
1514 1516 1512 1512 1513 1512 1512 1511 1510 1509 1507 1505 1500 1498 1497 1498 1497 1496 1495 1492 1490 1488
1511 1511 1511 1508 1510 1509 1507 1507 1505 1502 1501 1500 1496 1494 1493 1492 1491 1490 1489 1489 1485 1483
1509 1507 1508 1505 1504 1503 1503 1502 1500 1499 1496 1492 1489 1488 1489 1488 1488 1486 1483 1485 1481 1479
1509 1508 1507 1503 1501 1499 1496 1495 1494 1492 1492 1488 1484 1484 1482 1482 1482 1481 1479 1479 1476 1475
1505 1504 1503 1499 1496 1494 1493 1490 1489 1488 1487 1485 1481 1480 1478 1477 1477 1476 1475 1473 1471 1469
1501 1497 1494 1492 1491 1489 1487 1486 1485 1482 1481 1480 1478 1475 1474 1472 1472 1471 1470 1468 1467 1466